Wind_Speed
17 22 24 25 25 24 23 22 22 23 23 24 25 27 29 28 26 27 26 26 27 25 22 22 21 20 19 18 18 17 17 17 17 19 21 22 23 21 19 19 18 18 18 17 17 17 16 16 16 16 15 14 14 14 12 12 11 11 11 11 10 8 7 6 4 3 3 3 3 3 2 2 2 2 2 3 3 3 3 2 2 1 1 2 2
15 19 22 25 24 24 24 22 23 25 25 25 27 28 29 30 30 29 27 28 30 30 28 25 23 22 20 19 18 16 16 17 16 17 18 20 23 22 20 19 19 19 18 18 18 17 17 17 16 16 16 16 15 14 14 13 12 12 11 10 8 7 6 5 5 4 3 3 3 3 2 3 3 3 3 3 4 4 4 4 3 2 1 1 2
17 18 21 25 25 26 25 23 25 26 26 27 28 29 28 29 30 28 29 31 32 33 33 30 28 27 23 20 18 16 15 16 16 16 18 20 22 22 20 20 20 20 19 19 18 17 17 17 17 16 16 16 16 15 15 14 13 12 11 10 8 6 6 5 6 6 4 3 2 2 2 2 3 4 4 3 3 4 5 4 4 3 2 1 1
18 18 20 22 25 27 26 25 25 26 26 27 28 28 28 30 31 32 33 34 34 36 36 34 31 30 28 23 20 17 14 15 17 19 20 21 22 22 22 22 21 21 20 19 19 18 17 17 17 17 16 16 16 16 15 14 12 11 10 9 7 7 6 5 5 7 6 4 2 1 1 2 2 3 5 4 2 4 4 4 5 5 4 3 1
17 19 19 20 24 26 27 26 26 27 27 28 29 29 29 30 33 36 36 35 35 36 37 34 30 28 26 23 20 17 15 15 17 18 19 21 21 22 23 23 22 22 21 21 20 18 17 17 17 17 17 17 17 16 14 13 11 11 10 9 8 8 7 5 5 7 8 7 4 1 1 2 1 2 4 3 2 3 3 3 6 6 5 5 3
16 18 19 19 22 25 26 27 27 28 29 29 30 30 30 30 33 36 35 35 34 34 35 32 29 26 23 21 20 19 18 18 18 17 17 19 18 19 23 24 22 22 22 22 21 19 18 17 17 17 17 18 17 14 12 12 11 11 11 9 8 8 7 6 6 7 8 9 8 4 2 1 1 2 3 2 2 2 2 3 5 7 7 7 5
16 17 18 19 22 24 26 29 30 30 30 30 29 29 30 29 31 34 34 34 32 33 34 30 27 26 25 24 23 21 20 19 19 18 17 19 20 21 24 24 23 23 23 22 21 20 19 18 17 18 18 19 17 13 11 11 11 11 10 9 9 8 8 9 8 7 7 8 9 7 4 2 1 2 3 2 2 3 3 4 5 7 8 8 7
16 17 19 20 22 25 27 30 33 32 30 28 28 30 31 31 33 35 35 33 33 34 33 29 29 29 27 26 23 23 22 18 18 20 20 22 23 23 24 25 24 23 23 23 22 20 20 19 18 19 19 18 16 13 12 12 11 10 10 10 10 8 10 11 8 6 7 7 7 7 5 4 4 4 4 4 3 3 3 4 5 7 8 8 8
17 17 19 20 23 28 30 31 32 32 30 29 30 30 30 31 33 35 35 34 35 38 35 32 35 34 28 27 25 24 23 18 17 20 21 23 23 24 25 25 25 24 24 24 23 21 21 20 20 20 18 16 14 13 12 12 11 11 11 11 10 10 11 13 10 7 8 7 7 7 5 4 4 4 5 5 4 3 3 4 6 7 8 9 10
17 18 18 20 25 29 30 30 30 30 30 30 30 29 27 28 30 33 35 36 36 39 40 37 39 37 33 32 30 27 24 21 18 19 21 22 22 23 25 26 26 25 25 25 24 23 22 21 20 19 16 14 14 13 12 12 11 10 11 11 11 12 13 15 12 9 9 7 6 7 6 5 5 4 6 6 5 4 4 4 6 7 7 9 11
17 17 18 20 25 27 27 28 29 29 29 28 28 27 26 26 28 31 33 33 33 37 40 39 38 38 37 39 37 32 27 24 21 20 22 23 23 24 26 27 27 26 26 26 25 23 20 19 19 17 15 15 14 14 12 12 12 11 11 12 13 13 14 15 14 11 11 9 7 7 7 6 5 5 6 6 5 5 4 5 5 6 6 6 9
17 17 17 18 21 22 24 27 29 28 28 28 28 27 26 26 28 30 31 31 32 34 37 38 36 36 37 39 39 34 29 27 27 25 26 27 25 24 25 27 26 26 26 26 26 24 18 15 16 16 14 14 14 13 12 12 12 11 12 14 14 15 15 15 14 13 12 11 9 8 8 8 7 6 5 5 6 5 4 5 4 4 5 6 7
18 18 17 16 17 18 23 27 28 28 28 29 30 29 28 28 29 31 31 32 33 33 35 37 36 36 37 38 37 34 31 31 30 29 29 30 28 25 26 27 27 28 28 28 28 26 21 17 15 15 14 14 15 14 13 13 12 12 14 15 15 16 16 16 15 14 13 11 9 8 8 9 8 7 7 6 5 4 4 5 3 3 5 6 5
18 18 18 17 17 17 22 26 27 27 29 31 31 31 29 28 30 32 31 33 35 33 34 35 36 38 40 39 36 34 34 33 31 30 30 32 31 29 28 28 28 30 30 30 29 28 26 22 17 16 16 16 17 17 15 13 13 14 16 17 16 18 17 16 16 14 13 13 11 9 8 9 9 8 8 7 6 5 5 4 3 3 5 5 3
17 18 19 19 19 19 22 25 26 28 31 32 32 31 30 28 32 34 32 34 37 36 34 34 35 38 39 39 37 36 37 34 32 32 32 33 34 32 31 29 29 31 31 31 30 29 29 26 20 16 17 18 18 18 16 14 14 16 17 17 18 19 18 17 17 15 14 14 13 12 10 9 10 10 9 8 8 6 5 5 4 4 4 5 4
17 18 20 20 19 20 23 25 26 28 30 31 32 32 32 31 33 38 37 36 39 39 37 36 37 37 39 40 37 36 37 34 32 35 36 36 36 34 34 33 32 32 32 32 31 30 29 29 25 19 16 18 18 18 17 15 15 17 17 18 19 20 20 19 19 17 16 15 14 14 13 11 10 12 10 9 9 8 6 6 6 6 4 3 4
18 19 20 20 19 19 24 26 27 29 30 32 33 34 36 34 33 37 37 34 37 41 40 37 37 38 40 41 38 36 37 35 34 37 36 34 36 36 35 34 33 33 32 32 32 31 30 30 28 23 18 17 16 17 17 16 17 19 20 20 20 21 21 21 20 20 18 16 15 16 16 13 13 14 13 11 11 9 8 8 8 8 7 4 3
19 20 18 18 18 19 24 28 29 32 33 35 37 37 38 37 35 36 36 36 38 41 40 37 37 38 38 40 39 37 37 35 34 34 34 32 34 36 34 33 34 33 32 32 32 31 31 30 29 27 22 17 16 16 17 17 20 22 21 21 22 22 23 22 22 21 20 18 17 17 17 16 14 14 14 13 12 10 9 9 10 10 10 8 5
16 17 16 16 18 20 25 29 31 33 33 34 37 36 36 37 37 36 37 39 38 36 35 36 36 36 35 38 40 39 37 35 32 33 34 34 34 35 34 33 34 33 33 33 32 31 30 30 29 27 23 19 17 16 16 17 22 24 23 22 23 23 23 23 23 22 21 20 19 18 19 18 16 14 14 14 14 12 10 9 9 10 11 11 8
15 16 17 19 21 24 29 32 32 33 33 33 34 34 35 36 36 36 36 36 35 34 34 36 37 35 34 36 39 39 38 36 34 35 36 35 35 35 34 33 33 34 34 33 33 32 31 31 29 27 25 23 20 17 16 18 24 26 24 24 25 25 25 25 24 23 22 21 20 19 20 19 17 15 15 15 15 14 12 11 9 9 11 11 9
15 16 18 20 21 24 29 32 32 31 31 31 31 32 34 34 34 36 35 33 35 36 35 37 38 35 35 36 37 38 39 37 36 37 37 36 36 37 36 35 34 35 35 34 34 34 33 32 31 29 29 28 25 21 17 18 25 27 26 26 27 26 26 26 25 24 23 22 21 20 21 20 19 17 17 16 15 16 15 13 12 11 10 11 10
15 16 16 18 18 20 25 27 28 27 28 29 31 31 33 33 34 36 35 34 36 36 34 37 38 36 37 38 37 37 39 39 36 35 35 35 35 37 38 36 35 36 36 36 35 35 34 34 33 32 32 31 30 27 20 20 27 29 28 28 29 28 28 27 26 25 24 23 22 21 21 21 21 19 18 17 16 17 17 15 15 14 12 12 12
11 12 13 13 14 16 19 21 23 25 26 29 31 31 32 34 34 34 35 36 37 35 34 38 41 38 38 38 36 36 37 38 36 33 33 33 33 36 39 39 36 35 36 38 37 37 37 36 35 35 35 33 33 30 26 26 30 30 30 31 31 30 29 28 28 27 25 24 23 23 22 22 22 21 20 18 16 17 17 16 16 16 14 12 14
7 9 10 10 11 12 14 15 19 23 25 27 29 30 31 33 33 33 36 38 37 34 32 36 39 37 36 37 36 35 35 36 35 33 32 32 32 33 37 39 37 33 35 39 39 38 38 38 37 36 36 36 35 34 31 31 31 31 32 33 32 32 31 30 30 28 27 26 25 25 24 23 23 22 21 20 19 18 18 18 17 17 16 15 15
7 8 9 11 12 13 14 14 16 21 25 27 28 29 30 32 33 34 36 36 36 33 31 34 37 35 34 35 37 36 35 35 35 33 33 34 33 31 33 37 37 33 34 38 41 40 40 40 39 39 38 38 37 36 35 33 32 32 33 34 34 33 33 32 31 29 28 28 28 28 27 25 23 23 21 21 21 20 20 19 18 18 18 18 17
8 8 9 11 11 13 14 14 16 20 24 26 28 29 31 31 33 35 35 34 34 33 32 32 34 34 34 35 36 36 35 35 35 34 34 35 34 32 31 35 37 34 33 36 40 42 42 42 41 40 40 39 39 38 37 35 34 33 34 35 35 35 34 33 32 30 29 29 29 29 29 27 26 24 23 23 24 23 22 22 21 20 20 20 19
6 6 8 9 10 13 16 15 16 20 24 26 28 30 31 30 32 35 33 31 32 33 32 32 34 35 34 35 36 37 36 35 36 36 35 34 35 34 32 33 35 35 34 34 38 42 44 43 43 42 41 40 40 39 39 37 36 35 36 36 36 35 35 34 33 31 30 29 29 30 30 29 29 27 26 26 26 25 24 23 23 21 21 21 19
5 7 9 10 11 13 14 13 14 19 23 26 27 30 30 30 32 34 32 31 31 32 32 32 33 33 34 36 37 36 36 36 36 36 35 34 34 35 33 33 34 35 35 35 37 40 43 43 43 42 42 41 40 40 40 39 38 37 37 37 37 36 35 34 33 32 30 29 29 29 30 30 30 30 29 28 27 25 24 23 22 20 20 20 18
6 8 9 10 11 12 11 12 13 16 20 23 26 28 28 28 30 30 32 32 30 30 33 32 32 34 37 37 36 34 33 36 36 35 35 35 34 34 34 33 36 37 36 35 36 36 38 41 42 41 41 40 40 40 41 41 40 39 38 37 37 37 36 34 33 32 30 30 31 31 30 30 30 30 29 28 26 24 24 23 21 19 19 20 18
7 9 9 10 11 11 11 11 12 14 18 22 24 26 28 30 31 31 32 33 30 32 36 35 33 37 39 38 38 36 33 35 39 38 38 39 36 35 35 34 37 39 36 33 34 33 34 37 38 39 39 38 39 41 42 42 41 41 40 39 37 37 36 35 34 32 30 30 32 32 31 30 31 30 28 27 25 24 25 24 21 20 19 19 18
7 8 8 9 10 10 10 11 13 15 19 22 24 26 29 32 32 32 34 33 31 33 37 36 35 36 37 38 40 40 36 37 41 40 39 41 38 36 36 35 37 39 36 34 35 34 32 31 33 36 36 36 39 42 42 42 43 41 39 39 38 38 37 36 35 32 31 31 32 32 32 31 31 30 28 27 25 24 26 25 23 21 21 20 19
5 5 6 7 10 11 11 13 15 16 19 23 25 25 27 30 32 33 34 33 32 32 36 38 36 33 37 40 39 38 38 37 39 38 38 40 38 35 35 34 35 37 36 34 34 34 33 31 29 31 33 35 39 42 42 43 44 43 41 38 36 37 37 36 35 33 31 32 32 31 31 32 31 29 27 26 25 23 26 27 23 22 22 22 21
4 5 6 7 9 10 12 13 15 17 22 26 27 25 26 30 31 31 30 30 31 33 37 39 34 33 39 41 37 37 37 35 36 37 36 37 37 36 35 34 35 35 35 34 32 32 33 32 30 30 32 33 37 41 43 44 43 44 43 39 34 34 36 36 35 34 33 33 32 31 31 31 30 28 26 25 24 23 25 26 23 21 22 22 22
4 5 7 8 7 8 10 13 16 20 24 25 26 27 29 29 26 24 26 29 30 30 32 34 33 35 40 40 36 36 34 32 33 35 34 35 37 36 35 34 33 33 33 34 35 33 32 33 33 32 32 33 36 41 43 43 44 43 43 41 36 32 34 36 36 36 35 34 34 33 32 32 30 28 26 25 24 23 23 25 23 21 21 22 23
5 6 7 7 7 9 10 12 16 19 20 21 24 27 28 25 23 24 28 32 31 30 30 29 29 33 35 35 35 33 29 29 31 32 32 34 35 35 35 33 31 32 33 34 34 34 34 35 34 33 33 34 36 40 42 42 44 44 42 42 39 33 31 33 35 36 35 35 35 34 33 33 31 29 28 26 25 22 22 24 22 19 18 19 21
5 6 7 7 8 10 11 12 13 15 18 22 25 26 25 24 25 26 27 28 28 28 27 25 26 29 30 31 31 28 26 27 29 30 31 33 34 35 34 32 30 31 32 33 33 34 35 35 34 34 35 34 34 38 42 42 43 43 41 40 41 36 30 30 33 35 35 35 35 34 34 33 31 30 30 28 24 20 21 24 21 16 15 16 17
6 7 8 8 9 10 11 12 13 15 18 21 22 23 23 23 24 25 24 26 26 24 24 25 26 26 28 29 30 30 29 29 30 32 33 34 35 34 34 35 34 31 31 33 34 35 34 34 36 37 36 35 33 35 41 42 41 43 41 40 42 38 30 28 31 33 34 35 35 35 34 33 32 31 30 28 23 19 20 22 19 15 16 16 16
6 7 7 8 9 9 9 10 12 15 17 18 19 21 21 20 21 24 25 25 24 24 28 29 27 26 30 34 38 39 38 35 34 35 36 36 36 35 36 39 37 32 32 34 34 34 35 35 37 37 36 36 34 35 40 41 40 42 41 41 42 38 30 28 29 28 28 31 35 36 35 33 33 33 31 28 24 21 20 21 19 17 18 18 17
5 6 7 8 8 7 6 8 11 13 14 16 18 20 21 19 20 23 23 22 24 27 31 31 30 33 38 41 43 42 40 38 36 35 35 35 35 35 35 38 37 33 33 34 34 36 37 35 35 36 38 38 34 33 38 41 40 41 41 41 42 39 32 29 28 26 25 24 27 32 35 34 33 32 31 27 24 23 22 21 19 19 20 20 19
5 5 6 6 6 4 1 2 5 7 9 14 17 18 18 18 18 20 22 23 27 30 31 31 33 36 38 40 41 40 39 39 39 37 35 34 34 35 36 38 38 34 32 33 34 36 36 34 35 36 38 39 35 33 36 40 40 40 41 41 40 37 33 30 29 29 27 23 21 25 31 34 33 31 29 25 23 25 25 21 21 22 22 21 22
5 6 6 5 6 8 7 6 5 3 4 11 15 15 15 15 16 18 20 20 21 24 26 28 30 30 30 33 35 36 38 39 38 35 32 31 32 34 34 35 35 32 31 33 33 34 35 35 34 35 36 38 38 36 36 39 41 41 42 42 39 36 35 31 28 29 28 23 20 21 25 32 34 30 27 24 24 28 28 23 22 23 23 24 26
5 7 6 5 8 10 10 10 10 8 2 6 12 13 12 13 13 14 15 14 17 22 24 27 28 27 27 30 33 35 36 34 30 29 29 28 29 31 30 30 30 30 32 34 32 32 34 33 32 34 37 38 38 38 40 41 41 42 43 43 41 40 39 33 29 29 29 25 22 21 23 30 33 28 25 25 26 29 29 25 23 24 25 26 26
5 7 7 6 8 10 11 11 12 11 8 2 6 8 7 8 7 7 8 11 18 23 25 27 29 29 30 33 36 37 35 30 28 29 30 27 26 27 27 27 28 28 30 32 31 31 31 30 29 32 38 40 37 39 43 44 43 44 44 44 44 44 42 37 31 29 28 23 20 20 23 28 30 27 26 27 28 30 31 27 25 26 26 25 24
5 6 7 7 8 11 11 11 11 11 10 8 5 5 6 5 3 1 2 8 13 18 22 25 27 28 29 31 32 32 29 27 27 28 28 26 25 26 27 27 29 30 30 30 32 32 31 30 28 29 34 36 35 37 43 47 46 46 46 46 46 45 44 41 34 27 23 20 20 23 25 26 27 27 27 29 29 29 30 28 26 26 26 26 25
6 6 6 7 9 11 12 12 12 12 13 13 11 9 9 6 4 2 2 6 11 16 20 21 22 24 25 25 25 25 25 25 25 26 27 26 25 25 25 27 29 30 29 30 31 31 31 30 29 29 32 33 32 34 40 46 47 46 45 47 47 46 45 43 35 28 26 25 25 27 27 26 27 27 28 29 29 28 28 28 28 28 28 28 27
6 5 5 7 9 11 12 14 14 14 14 15 14 13 11 7 5 4 2 2 8 13 16 17 17 19 21 20 20 20 22 23 24 24 25 26 25 25 25 27 28 28 31 32 31 30 31 29 28 30 32 29 28 29 33 39 44 45 46 47 46 45 47 44 36 31 30 31 29 28 26 27 29 30 31 31 29 28 28 29 30 30 29 27 26
6 6 6 7 9 10 12 14 15 15 16 15 15 14 12 8 6 6 4 2 3 7 10 12 12 12 14 16 17 18 19 20 22 24 24 23 24 24 23 24 26 28 31 33 31 30 30 30 30 32 31 28 29 31 33 38 43 45 47 48 47 46 46 43 38 34 33 33 29 27 28 30 32 32 32 30 30 30 31 32 31 29 28 27 25
6 7 7 9 11 11 12 14 15 15 15 15 15 15 13 12 11 9 7 6 5 4 4 5 5 6 7 9 12 14 15 15 16 20 22 21 22 24 24 25 29 31 32 33 33 33 34 34 33 32 29 27 30 34 38 44 48 49 46 45 47 49 46 42 39 37 35 33 31 30 32 34 35 33 31 31 32 32 32 33 29 24 23 25 23
7 8 9 11 12 13 14 15 15 14 15 16 16 15 15 14 13 12 11 9 9 8 7 6 5 3 3 3 4 6 7 7 9 12 15 16 18 22 23 24 27 30 31 31 31 32 34 36 36 34 31 29 30 36 45 52 54 53 50 48 49 51 48 43 42 41 38 36 36 37 37 36 36 35 32 30 28 27 27 28 26 23 23 23 20
8 9 10 12 13 14 15 14 13 14 15 17 17 16 15 15 14 15 14 13 11 10 10 9 8 7 6 4 3 2 1 1 4 6 7 9 13 18 20 21 22 24 26 28 29 30 31 31 32 36 39 40 41 46 52 54 53 52 53 53 53 52 49 45 43 43 43 43 41 38 37 37 36 33 29 26 23 22 22 23 25 27 26 23 19
10 10 10 12 13 14 14 14 13 13 15 17 16 15 14 15 16 16 16 15 13 12 12 11 10 9 8 7 6 4 3 2 1 3 4 4 7 12 17 20 22 23 26 28 31 35 36 35 34 37 41 45 49 49 46 46 48 49 49 50 50 51 51 48 47 47 45 44 43 39 34 33 32 29 26 24 23 22 20 20 24 27 25 21 20
Wind_Direction
195 196 198 198 199 197 195 195 194 195 196 195 195 197 199 198 197 199 201 201 202 202 200 201 202 205 210 213 217 220 221 225 228 233 237 241 243 242 242 242 240 238 238 241 245 249 252 254 254 253 254 256 258 259 261 265 270 269 269 275 278 271 269 275 260 217 197 198 198 200 202 227 250 244 245 247 243 239 235 241 250 283 335 349 4
193 196 197 198 199 197 196 196 196 198 197 196 197 199 201 200 201 200 199 201 206 207 204 202 202 204 205 208 212 215 218 220 223 228 232 238 242 241 240 240 237 236 239 243 248 252 254 256 255 253 254 254 257 258 260 265 266 265 268 272 267 257 262 266 236 210 213 214 207 211 216 221 228 231 237 240 238 238 238 244 253 264 299 7 36
193 195 195 197 199 198 198 198 199 201 201 199 199 200 200 200 201 200 200 204 208 210 209 207 208 209 208 206 207 210 214 218 220 226 231 236 241 241 238 236 235 236 240 244 249 254 257 258 258 256 256 256 257 257 259 262 263 263 266 264 259 255 259 254 234 223 211 180 188 227 236 213 207 217 228 235 242 243 241 242 243 247 265 281 29
193 195 195 197 198 199 199 198 198 201 203 203 202 200 200 200 201 201 203 206 208 211 213 212 212 214 214 213 213 213 216 222 226 231 235 238 240 239 237 233 233 236 239 243 248 254 257 258 258 258 258 258 256 255 257 259 260 262 261 257 253 257 259 242 222 220 208 186 192 209 189 217 217 201 210 225 252 246 239 238 231 229 249 261 279
194 195 196 196 198 199 199 198 198 200 204 205 203 203 203 202 203 205 206 207 209 211 212 211 210 212 213 214 217 219 222 224 225 226 229 233 234 235 236 234 233 236 238 242 247 253 255 254 256 258 258 258 255 254 257 257 259 261 258 256 251 254 259 240 212 212 211 207 204 180 156 214 214 179 199 215 238 245 237 229 225 220 229 241 238
197 197 198 198 199 198 198 199 200 202 204 205 204 204 205 204 204 205 206 207 207 209 210 208 207 206 203 203 207 211 215 218 217 216 216 220 224 229 235 235 235 238 240 242 246 249 250 250 253 256 256 256 254 254 256 255 257 258 257 256 250 247 249 239 222 211 212 212 208 212 246 298 92 159 198 205 200 230 246 221 215 214 222 232 234
200 200 199 199 198 197 199 199 201 205 205 204 204 206 206 204 203 204 205 206 205 207 208 205 202 202 201 202 203 204 209 211 211 210 209 217 223 228 234 235 235 237 240 242 245 246 247 248 252 254 254 254 253 251 252 253 256 256 253 250 246 242 234 231 225 209 205 211 212 217 235 260 256 207 215 219 197 211 229 222 212 210 218 228 232
200 200 200 200 200 199 200 200 202 206 205 203 204 206 206 204 204 205 205 205 205 206 205 202 202 203 201 203 204 207 209 206 206 210 214 223 228 230 234 235 234 236 238 241 244 245 246 246 250 252 252 251 249 248 250 251 252 253 250 245 242 240 229 224 220 209 204 203 203 211 220 233 240 228 224 236 241 229 211 211 214 212 219 228 229
202 203 202 201 202 203 202 202 203 205 204 204 205 206 206 205 205 206 206 206 206 207 206 204 207 206 201 202 205 210 212 207 207 213 218 223 226 228 231 233 234 236 238 241 244 245 246 246 249 249 247 246 244 246 248 248 247 247 246 242 238 238 231 222 218 213 213 206 194 199 203 206 212 209 210 218 233 247 231 212 209 209 220 229 231
204 206 205 204 205 205 204 203 204 203 204 206 205 205 206 205 205 206 208 207 207 208 208 207 208 207 205 206 208 210 210 207 206 209 214 217 219 223 227 230 232 234 237 240 242 243 243 243 245 246 243 241 241 243 243 242 245 244 244 243 240 241 233 224 221 217 217 215 203 195 190 190 196 200 206 205 207 225 240 239 221 215 224 227 228
203 207 208 208 209 207 205 205 206 204 204 206 205 205 207 205 205 208 210 208 206 207 208 208 207 207 209 211 212 211 207 204 203 205 209 212 213 217 223 227 230 232 235 238 239 238 236 236 239 239 240 240 240 241 238 240 246 244 243 243 240 239 231 224 224 224 224 226 219 208 205 209 213 217 219 215 218 220 227 247 234 222 239 234 223
199 203 208 208 207 205 205 207 206 203 201 203 204 205 206 204 204 207 209 208 206 207 207 207 206 207 210 213 214 212 208 205 206 207 209 211 211 212 217 223 226 229 232 234 236 233 227 227 232 232 234 236 236 237 236 240 243 241 244 246 238 233 228 225 225 225 227 229 226 219 220 226 225 228 230 220 228 234 237 255 240 211 239 238 226
197 199 203 205 203 200 202 205 203 199 199 201 204 204 204 203 202 205 207 208 207 206 206 207 206 208 210 212 214 212 210 210 211 211 212 214 212 210 213 217 220 224 228 230 232 230 226 225 226 227 229 231 233 235 236 237 238 240 247 246 236 230 227 225 225 224 226 229 230 229 230 233 228 227 230 222 219 217 221 242 231 216 243 240 227
199 198 199 201 201 198 202 204 200 199 201 202 203 203 203 200 201 205 207 207 208 207 206 207 207 210 212 212 212 212 212 213 213 213 214 216 216 214 215 216 217 221 225 229 229 229 230 230 227 227 229 232 236 238 238 235 237 244 249 245 235 230 227 225 224 224 228 231 234 239 239 238 235 230 227 225 222 211 211 220 200 211 247 249 240
202 200 199 200 198 196 200 202 199 200 202 202 202 201 199 199 200 204 206 206 208 208 206 207 209 211 213 213 213 213 214 214 214 216 216 219 220 219 219 219 219 224 227 229 230 230 231 232 229 227 229 233 237 238 238 235 237 243 245 242 236 230 226 224 224 225 231 237 239 242 243 240 243 242 234 228 230 229 227 220 200 205 235 240 237
202 202 203 202 197 194 198 200 199 200 200 202 201 198 199 200 201 206 207 206 208 208 207 208 210 211 213 214 213 214 216 214 214 218 219 221 222 221 222 224 224 226 229 230 231 231 232 232 231 228 227 232 235 235 235 232 236 241 242 239 234 230 227 225 226 229 233 239 242 244 243 241 247 250 244 234 233 235 234 223 215 220 228 235 234
202 203 203 201 195 194 199 200 199 199 199 201 200 198 200 201 200 204 207 205 206 208 208 208 209 211 213 214 214 214 215 215 216 219 219 220 223 223 224 226 226 228 230 231 232 232 232 232 232 230 227 229 229 231 233 231 236 242 242 238 234 231 229 227 229 232 235 239 242 244 243 242 249 254 249 242 240 242 240 232 223 221 225 235 248
203 203 200 197 196 197 202 203 201 199 199 199 200 199 201 202 202 202 203 203 206 207 207 207 208 209 212 213 213 213 214 215 216 218 217 216 220 223 223 224 227 228 229 230 231 232 232 232 232 231 229 227 224 227 230 229 236 241 240 238 235 232 231 230 232 234 237 240 242 243 244 245 251 254 247 241 243 242 241 238 232 226 225 230 242
203 202 200 198 199 201 202 204 204 201 200 200 200 199 200 203 203 203 205 205 205 204 204 205 207 208 210 212 213 214 214 213 213 215 216 215 217 220 221 222 225 226 228 230 230 230 231 232 230 229 227 223 222 224 226 229 235 239 237 235 235 233 232 232 234 236 238 241 243 244 244 245 250 251 242 239 239 235 233 237 236 233 230 229 233
203 202 203 201 202 204 202 203 204 202 201 201 200 199 200 202 202 204 206 204 202 201 201 204 206 206 208 211 213 214 214 213 214 215 217 217 218 219 220 221 223 225 227 229 230 230 231 232 229 226 224 223 222 219 222 230 235 237 235 232 232 233 232 232 235 237 237 240 243 243 243 244 247 245 239 237 234 231 230 231 233 234 233 231 226
203 203 204 202 202 204 203 204 204 203 202 200 199 199 201 202 201 203 203 201 201 202 201 203 204 204 206 208 210 212 214 214 215 217 218 217 218 219 220 221 222 225 226 227 229 231 232 233 230 227 226 226 225 220 216 226 234 236 235 233 232 233 232 232 234 235 237 240 242 241 241 242 243 241 236 233 229 229 230 229 229 228 227 229 224
205 205 206 204 203 202 202 201 200 201 202 199 199 200 200 201 202 203 203 202 204 203 200 201 202 202 205 207 209 211 213 214 213 214 215 215 218 220 221 221 221 224 226 227 229 231 232 233 231 230 230 228 229 226 218 225 235 235 234 233 232 232 232 232 233 234 235 238 239 239 239 240 240 238 234 231 227 227 228 227 227 225 221 227 229
212 210 209 207 202 197 196 195 193 197 200 198 199 201 200 201 201 201 202 205 206 203 200 201 202 202 204 206 207 208 210 211 210 210 211 212 215 218 221 221 220 221 224 227 229 230 232 233 231 231 231 230 230 228 225 230 236 234 234 234 233 232 231 231 232 233 233 234 236 238 237 238 239 236 232 231 228 227 228 226 225 225 223 227 234
208 208 205 203 195 187 190 194 195 198 199 197 198 200 200 201 200 201 203 205 205 201 199 199 201 202 202 203 205 206 208 208 208 209 210 210 212 214 218 221 219 217 221 225 228 229 231 232 231 230 231 230 230 229 229 232 235 234 235 236 235 234 232 231 232 232 232 233 234 236 237 237 238 236 233 233 231 229 229 227 224 226 226 228 234
201 199 193 191 190 188 194 199 199 198 197 196 196 197 199 201 201 201 205 206 203 200 199 198 199 200 200 202 205 206 207 207 207 209 210 210 210 210 212 216 216 213 216 223 226 227 228 229 229 230 230 230 230 230 230 230 232 234 235 235 236 236 235 235 234 233 232 233 235 237 238 239 238 235 230 232 234 233 232 229 225 226 229 229 229
210 197 188 191 193 194 198 200 199 197 196 196 197 199 200 202 201 203 206 204 200 200 199 197 196 197 199 202 204 205 206 206 205 207 208 208 208 208 208 212 214 212 213 219 223 225 226 227 229 230 230 230 230 230 230 230 231 233 234 235 235 236 237 237 236 235 234 236 237 238 239 239 238 234 230 233 237 236 234 230 227 227 231 230 228
221 201 194 195 197 200 201 200 198 195 194 195 196 199 200 199 201 204 205 202 199 198 197 194 195 197 199 201 202 203 204 203 203 204 205 205 206 207 208 209 211 211 210 214 219 224 226 227 228 229 229 230 229 229 230 230 231 232 234 234 233 234 236 237 237 236 235 237 239 240 240 239 239 237 234 236 238 237 234 232 231 230 231 230 227
219 208 204 201 203 206 204 200 197 195 194 194 196 199 198 197 200 202 202 200 197 193 192 192 194 197 199 201 201 201 201 201 201 201 202 203 204 206 207 207 208 209 210 213 216 221 225 226 227 228 228 229 228 228 229 229 230 232 233 233 232 233 234 235 237 237 235 237 240 241 241 240 241 241 239 239 240 239 235 233 233 232 230 228 225
224 223 215 207 209 210 204 200 198 195 195 195 197 199 197 197 200 200 200 201 195 190 192 193 194 198 201 201 198 198 199 198 198 199 201 202 203 205 206 207 210 211 211 213 215 217 221 224 225 226 227 227 226 226 227 228 230 230 231 231 231 232 232 233 235 235 235 237 240 242 242 241 243 246 244 242 242 241 237 235 236 236 232 229 224
225 228 225 216 213 212 204 200 198 196 197 196 198 199 198 200 201 198 200 201 196 194 198 199 199 202 203 201 199 200 199 198 201 202 204 204 204 206 207 208 212 214 212 211 213 215 217 220 222 223 224 224 225 227 228 229 230 230 229 229 229 231 231 232 233 233 232 235 239 242 241 242 245 246 245 244 242 239 237 235 238 241 239 234 225
229 230 232 225 222 217 206 201 201 200 199 198 198 198 199 202 202 200 201 200 197 197 200 202 204 204 202 203 204 205 204 204 205 205 205 207 206 207 209 210 213 215 212 212 213 214 215 217 218 220 221 222 225 228 229 230 232 231 228 227 228 229 230 231 231 230 230 233 237 239 240 243 244 243 243 244 240 236 234 233 238 245 245 241 231
247 248 244 232 228 222 211 209 208 204 201 201 200 198 199 202 202 202 201 199 197 198 200 205 207 203 202 204 204 204 205 205 204 203 204 206 206 207 209 209 211 212 212 211 212 213 216 216 216 217 219 221 226 230 230 231 233 231 227 225 226 228 228 228 229 229 229 232 235 236 238 241 242 240 239 239 236 232 230 232 240 249 250 247 241
249 257 256 245 236 228 221 217 211 204 203 203 200 197 199 202 202 200 197 195 196 198 201 206 205 201 202 204 202 201 202 201 200 201 202 203 204 206 208 209 210 211 211 211 211 212 215 216 216 217 218 220 226 230 231 231 233 232 228 224 222 225 227 227 228 229 229 231 233 234 236 239 241 240 235 232 231 230 228 232 241 249 248 246 243
253 251 256 252 247 240 233 228 220 215 210 204 200 201 203 203 200 194 194 196 199 199 200 202 202 201 203 203 201 201 200 198 198 199 199 201 204 207 209 210 211 210 210 213 213 213 215 217 217 218 219 221 226 230 231 231 232 232 229 224 221 223 226 227 229 229 230 231 233 234 236 238 238 237 232 228 229 230 229 231 237 241 241 242 242
260 255 257 257 254 248 241 235 229 222 212 202 201 204 204 200 195 192 197 201 203 203 203 202 200 201 202 201 201 200 196 195 195 196 198 201 204 207 210 209 209 210 212 213 213 213 216 218 218 218 220 223 226 230 231 231 231 231 228 224 222 221 223 225 228 230 231 232 234 236 237 237 235 235 233 229 228 231 230 228 230 232 231 232 236
267 265 263 262 260 256 251 246 236 222 209 204 205 204 200 197 196 195 198 200 202 204 205 201 197 198 199 198 197 196 193 194 194 195 199 202 205 207 207 206 207 210 212 212 212 214 217 219 219 219 221 224 227 230 231 231 230 229 226 223 222 221 221 223 226 229 231 232 234 235 235 235 233 234 237 233 228 228 226 222 221 219 215 213 219
274 275 273 269 264 261 257 251 239 223 212 208 205 199 195 194 194 192 193 196 199 201 201 199 196 195 195 194 195 195 195 195 195 197 201 203 205 206 205 206 208 208 211 213 214 215 216 219 220 219 220 224 226 227 229 229 228 226 223 221 221 220 220 221 223 226 228 229 233 234 234 233 231 233 236 231 224 222 218 213 212 208 204 202 204
290 292 288 282 276 268 257 244 232 223 214 205 197 192 189 188 189 191 192 194 196 197 199 199 195 193 195 198 201 202 201 198 196 199 202 202 204 204 205 208 209 208 211 214 215 217 218 218 220 219 219 222 224 225 228 228 226 225 221 219 219 218 218 220 220 221 223 227 231 234 232 230 230 232 234 230 225 223 212 205 205 202 199 198 195
312 313 307 303 300 289 264 235 225 221 209 197 194 191 187 187 190 192 192 193 197 200 199 196 194 197 202 203 204 204 204 201 200 201 203 203 204 205 206 209 211 211 212 212 212 216 217 217 219 220 219 219 220 223 227 226 224 223 220 217 218 217 216 217 217 217 219 221 227 230 230 230 230 231 232 229 226 220 208 200 200 198 196 196 191
340 336 326 325 334 344 359 221 237 232 209 195 192 190 191 190 189 192 195 199 203 204 201 197 197 201 204 204 204 203 204 205 205 205 205 205 204 205 207 210 212 213 215 213 211 212 214 214 217 220 220 219 217 219 225 226 223 222 220 216 215 215 214 215 215 215 216 216 217 221 225 227 227 227 228 225 218 211 203 197 196 194 193 193 189
2 360 354 14 41 48 52 40 8 335 220 197 190 187 191 190 187 195 203 204 204 203 201 200 202 202 202 203 204 203 204 207 207 206 205 205 206 207 207 208 211 213 216 218 216 216 217 216 215 217 220 221 218 216 220 223 222 221 219 215 214 215 214 212 212 213 213 212 210 211 217 221 221 220 219 215 208 205 200 195 193 191 191 193 190
35 28 23 46 57 52 46 34 22 18 17 196 191 185 185 187 190 201 208 204 201 201 200 200 202 202 201 203 205 206 206 208 208 207 207 208 209 209 208 209 211 213 216 219 220 220 221 219 216 216 219 220 218 215 217 221 221 220 218 216 215 217 215 210 210 212 210 209 209 208 212 216 215 210 207 205 201 199 198 197 196 194 195 197 193
39 44 45 63 72 65 54 39 29 26 32 91 181 182 175 176 185 202 211 206 203 201 200 200 202 202 203 205 207 208 206 206 207 207 208 210 209 208 208 208 209 211 217 221 221 220 222 222 219 217 218 218 215 213 215 218 218 217 218 217 217 218 216 211 209 210 207 206 208 206 208 212 208 200 199 199 196 193 196 199 197 195 195 194 188
27 42 55 73 85 82 70 55 43 38 43 55 84 122 127 127 118 111 208 209 206 203 201 202 203 204 205 207 208 207 206 206 207 205 206 208 206 204 206 208 209 211 216 221 221 220 222 225 225 226 225 220 214 211 213 217 218 217 217 218 217 216 215 212 210 208 204 202 202 204 207 207 200 194 194 195 191 191 194 194 192 190 187 183 180
21 33 51 71 85 88 84 73 60 52 53 53 57 75 86 75 53 52 169 198 203 204 203 203 204 206 207 207 206 206 206 207 206 204 205 208 207 204 207 209 211 213 217 223 224 222 221 222 221 223 227 224 218 214 214 215 216 216 217 218 217 214 214 213 209 205 205 206 207 209 207 199 192 190 191 190 191 192 191 187 184 182 178 177 178
23 34 47 67 80 82 81 75 63 55 57 56 55 61 64 52 36 38 51 196 203 202 203 204 206 207 208 206 205 207 209 210 210 209 211 212 210 209 210 210 210 212 216 221 223 220 219 218 217 220 224 222 215 212 212 213 214 215 217 218 216 213 213 211 207 206 210 212 212 210 201 188 185 187 187 187 191 190 185 181 180 177 174 175 178
30 39 51 69 76 72 70 69 60 52 52 51 51 53 51 46 45 43 40 64 180 194 199 204 206 206 207 207 207 210 213 212 211 212 215 215 212 212 213 212 212 215 219 222 223 222 221 222 222 223 222 216 210 210 209 208 210 212 213 214 212 210 208 206 202 204 207 206 204 199 188 182 182 184 183 186 189 185 179 177 176 175 176 177 180
43 47 57 69 71 68 68 67 63 58 53 50 49 46 42 40 40 36 40 58 79 116 156 173 184 195 203 209 213 216 217 216 213 213 216 217 214 215 216 216 215 216 219 223 224 224 225 226 227 224 217 210 210 209 205 205 207 207 207 206 205 203 201 198 196 196 194 191 187 182 177 176 176 174 174 178 180 178 176 175 173 173 177 178 181
40 43 53 62 66 67 67 65 65 65 61 57 55 49 44 41 37 36 42 55 65 75 85 89 95 113 147 182 205 213 217 225 227 225 226 229 227 225 228 231 228 224 223 226 228 228 227 227 227 222 211 203 205 209 210 210 208 205 203 203 201 199 196 193 193 189 182 175 171 168 167 168 167 164 164 169 173 173 175 176 175 176 178 177 179
31 36 48 56 62 67 68 67 67 64 60 58 57 52 48 45 42 42 46 50 58 67 70 69 68 69 72 78 87 102 124 213 232 236 244 247 244 241 242 248 250 245 241 240 240 240 237 232 227 223 217 213 216 219 218 214 209 207 207 205 201 196 191 189 188 183 173 166 162 161 162 163 162 160 162 166 171 174 175 176 178 179 179 178 179
31 36 46 52 57 63 66 68 69 65 60 59 58 56 55 53 50 49 49 51 57 64 66 66 66 68 72 76 80 84 82 86 213 244 261 272 271 263 259 261 265 267 264 259 253 249 247 242 236 232 229 226 226 226 221 212 208 209 209 205 198 191 186 184 181 175 167 162 160 161 163 162 161 161 164 168 172 176 176 176 178 178 178 178 179
Height
765 769 772 775 778 780 783 785 788 790 793 795 797 799 800 803 806 808 811 813 815 817 820 822 824 826 828 830 831 833 834 835 836 837 838 840 841 842 844 845 847 848 849 850 851 853 854 855 855 856 857 858 858 859 859 860 860 861 861 861 862 862 862 862 863 864 865 866 867 867 867 867 867 868 869 869 869 870 870 871 871 872 872 872 872
764 767 769 772 775 777 780 782 785 787 789 792 793 795 798 800 802 804 807 809 811 813 816 818 820 822 824 827 829 831 832 833 834 836 837 838 839 841 843 844 845 847 848 849 850 851 852 853 854 855 855 856 857 857 858 859 859 860 860 861 861 861 861 861 862 863 864 865 865 866 867 867 867 867 868 869 869 870 870 870 871 872 872 873 873
761 763 765 768 771 774 777 779 781 784 786 788 790 792 795 796 799 801 803 805 807 810 812 814 817 819 822 824 826 829 830 831 833 834 836 837 838 840 841 843 844 845 847 848 849 850 851 852 852 853 854 855 855 856 857 857 858 858 859 859 859 860 860 861 862 862 863 864 865 866 866 867 867 867 868 868 869 869 870 870 871 871 872 872 873
758 760 761 764 768 770 773 775 778 781 784 785 787 789 791 793 795 797 799 801 804 806 808 812 815 818 820 823 825 827 829 830 831 833 834 835 837 838 839 841 842 844 845 846 847 848 849 850 851 852 852 853 854 855 855 856 856 856 857 858 858 859 859 860 861 862 863 864 865 866 866 867 869 867 866 867 868 869 869 870 870 871 871 872 873
756 757 758 760 762 765 769 772 775 777 779 781 783 786 787 789 791 793 796 798 800 803 806 810 813 816 819 822 824 825 827 828 829 830 832 833 835 836 838 839 841 842 844 845 846 847 848 849 850 850 851 852 852 853 853 854 854 855 856 856 857 858 858 859 860 861 862 863 864 865 866 868 868 866 866 867 868 868 869 869 870 870 871 871 872
752 753 755 757 759 763 766 768 770 772 774 776 779 782 784 785 788 790 793 795 798 800 804 808 811 813 816 818 820 822 823 824 825 827 829 831 833 835 836 838 840 841 842 844 845 846 847 848 848 849 850 850 851 852 852 852 853 853 854 855 855 857 857 858 859 860 861 862 863 864 865 866 866 865 867 868 867 868 868 868 869 870 870 871 871
748 750 751 754 756 759 761 763 765 767 769 773 776 779 781 783 785 788 790 792 795 798 801 805 808 810 812 814 815 817 818 820 822 824 826 828 831 833 835 836 838 839 841 842 843 844 846 846 847 848 848 849 850 850 851 851 851 852 852 853 854 856 857 858 859 859 860 861 862 863 864 865 866 866 866 867 868 868 868 868 869 869 869 870 871
744 747 747 749 751 752 754 756 759 762 766 771 773 775 778 780 782 784 787 790 792 795 798 801 803 805 808 810 812 813 815 817 819 822 824 826 829 831 832 834 836 837 839 840 841 843 844 845 846 846 847 848 848 849 849 850 850 851 851 852 853 854 855 856 857 858 859 860 861 863 864 864 865 865 865 866 867 867 867 867 868 868 868 869 870
739 741 743 744 745 747 749 752 755 759 764 767 768 771 774 777 780 782 784 787 789 791 794 797 799 801 804 807 808 810 813 816 818 820 822 824 826 828 830 832 833 835 836 837 839 840 842 843 844 845 845 846 847 847 848 848 849 850 850 850 851 852 853 855 856 857 858 859 860 861 862 863 864 864 864 864 864 866 866 865 865 867 867 868 868
734 736 737 738 740 743 746 749 753 757 760 763 765 769 772 775 778 780 781 783 786 788 790 792 795 798 800 802 804 807 810 813 815 817 819 821 824 826 827 829 830 832 833 835 836 838 839 841 842 843 843 844 845 845 846 847 848 848 848 849 849 850 852 853 855 856 857 858 859 860 861 862 862 862 863 863 863 864 864 863 863 865 865 866 867
729 731 733 734 737 741 745 748 750 754 757 760 763 766 769 772 775 777 779 782 784 786 788 790 792 794 796 798 800 803 806 809 812 813 816 818 820 822 824 826 828 829 831 832 834 835 837 838 839 841 842 842 843 843 844 846 846 847 847 847 848 849 850 852 853 854 855 857 858 859 860 860 861 861 861 862 862 862 863 862 861 862 863 864 865
724 727 729 731 735 738 742 744 746 750 753 755 758 762 766 768 771 774 777 779 782 784 786 788 790 792 793 795 797 800 803 805 807 809 811 814 816 818 821 823 825 827 828 829 831 832 834 836 837 838 839 840 841 842 843 844 845 845 845 845 846 847 849 850 851 853 854 855 856 857 858 859 860 860 860 861 861 861 862 861 861 862 863 863 864
717 720 723 726 730 732 735 738 741 745 747 750 753 757 760 763 766 770 772 775 778 781 783 785 787 789 790 792 794 797 800 802 804 806 808 810 813 815 817 819 822 823 825 826 827 829 831 833 834 836 837 837 838 839 840 841 843 843 843 843 845 846 847 848 850 851 853 854 855 856 857 858 858 859 859 860 860 861 862 862 862 863 862 862 863
710 713 716 720 722 725 728 731 735 738 741 745 749 752 755 758 761 765 768 771 774 777 780 782 783 785 787 789 792 794 797 799 801 803 805 807 809 812 814 816 818 819 821 822 824 826 828 830 832 833 834 835 836 837 838 839 840 840 841 842 843 844 845 847 848 850 851 853 854 855 856 856 857 857 858 859 859 860 861 861 862 863 863 862 863
706 707 709 711 713 717 721 725 729 733 736 740 744 747 750 752 756 760 763 766 770 773 776 778 780 782 784 786 789 791 793 796 798 800 802 804 806 809 811 813 815 816 818 819 821 823 825 827 829 830 831 832 833 834 835 837 838 838 839 840 841 842 843 845 847 848 850 851 852 853 854 855 855 856 857 858 859 859 860 860 861 862 863 862 862
701 702 704 705 707 711 715 719 723 727 732 735 738 741 743 747 750 754 758 761 765 768 771 774 776 779 781 783 786 788 790 793 795 797 799 801 803 805 807 809 812 814 815 817 818 820 822 824 826 827 828 829 830 832 833 834 835 836 837 838 839 840 842 843 845 846 848 850 851 852 853 854 854 855 856 856 857 858 859 859 860 860 862 862 862
694 695 696 699 702 706 709 713 717 721 725 729 731 734 737 741 745 749 753 757 760 763 766 770 773 775 777 780 782 785 787 789 791 793 796 798 800 802 804 807 809 811 813 814 816 817 819 821 822 824 825 826 828 829 830 832 833 833 835 836 837 838 840 841 843 844 846 848 849 850 851 852 853 853 854 855 856 857 857 858 859 859 860 861 862
688 688 691 694 698 701 704 707 711 713 717 720 723 727 732 736 740 744 748 751 754 758 762 765 768 771 774 776 779 781 783 786 788 790 793 795 797 799 802 804 805 808 810 811 813 814 816 818 819 821 822 823 825 826 828 829 830 831 832 833 835 836 838 839 841 842 844 846 847 848 849 850 851 852 853 853 854 855 856 857 857 858 858 859 860
685 685 688 690 692 694 697 701 704 708 711 713 717 723 728 732 735 739 742 745 749 754 758 761 764 767 770 772 775 777 780 782 785 787 790 791 794 796 798 800 802 805 806 808 810 812 813 814 816 817 818 820 821 823 825 826 827 828 829 831 832 834 835 837 838 840 842 844 845 846 848 848 850 850 851 852 852 853 854 855 856 856 857 858 858
680 681 682 683 685 686 690 694 698 702 706 709 714 720 723 727 731 734 738 741 746 750 753 756 759 763 766 768 771 773 776 779 781 783 786 788 790 792 795 797 799 801 803 805 807 808 810 811 812 814 814 816 818 820 822 823 824 825 826 828 829 831 832 834 836 837 839 841 843 844 846 846 848 848 849 850 851 851 852 853 854 854 855 857 857
673 674 675 676 678 680 684 689 693 698 702 705 711 715 718 722 725 729 733 737 740 743 746 750 753 758 760 763 766 769 772 774 777 779 781 784 786 788 791 793 795 797 799 802 803 805 806 807 809 810 811 812 814 816 819 820 821 822 824 825 826 827 829 831 833 835 837 839 841 842 843 844 845 846 847 848 849 849 850 851 852 853 853 854 855
668 668 669 671 673 676 681 686 691 695 698 702 707 709 713 717 719 723 728 731 734 737 741 744 748 752 754 758 762 765 767 769 772 775 777 780 782 784 787 789 791 793 795 797 799 801 802 803 805 806 807 809 810 812 815 816 817 819 821 822 823 824 826 828 830 832 834 836 838 839 840 841 842 843 845 846 847 847 848 849 850 851 852 852 853
665 666 668 670 672 675 680 684 688 691 693 697 701 704 707 710 713 718 721 724 727 731 735 738 742 745 749 753 757 759 762 764 767 770 773 776 778 780 783 785 787 789 791 793 795 796 798 799 801 802 803 805 806 808 810 812 813 816 817 818 819 821 823 825 826 828 830 833 835 836 837 838 839 841 842 843 845 846 847 848 848 849 850 851 851
665 666 666 668 671 674 678 681 682 685 689 693 695 698 701 704 708 712 714 717 721 726 730 733 736 740 744 748 751 754 757 759 763 766 768 772 774 776 778 779 782 785 786 788 790 792 793 795 796 798 799 801 802 804 806 807 810 812 814 815 816 818 819 821 823 825 827 829 831 832 833 834 836 838 840 841 842 843 844 845 846 846 847 848 849
665 665 665 667 668 670 673 674 676 679 683 686 690 693 696 699 703 705 708 711 716 721 724 727 731 736 740 742 745 748 751 754 757 761 763 766 769 771 773 774 777 779 781 783 785 786 788 789 791 793 794 796 798 800 801 803 806 808 810 811 813 815 816 818 819 821 823 825 827 828 829 831 833 835 837 838 839 840 841 842 843 844 845 845 846
663 663 664 665 665 666 667 668 671 674 677 681 684 687 691 694 697 699 702 706 711 715 718 722 726 730 734 736 739 742 745 748 752 755 758 761 763 766 768 769 771 774 776 778 779 781 782 783 785 787 789 791 794 796 797 799 802 803 805 808 810 812 813 815 816 818 820 821 823 824 825 827 829 831 833 834 834 836 837 838 839 841 842 843 844
661 662 663 663 663 663 663 664 666 668 671 675 678 681 685 688 691 694 698 703 706 710 713 716 720 724 727 729 732 735 738 742 745 748 752 755 757 760 762 764 766 768 771 773 774 775 776 778 781 783 785 787 789 791 793 795 798 799 801 804 806 808 810 812 813 815 816 818 819 820 821 823 825 826 828 829 830 832 834 835 837 839 840 841 841
659 660 661 661 661 660 660 661 662 664 667 670 673 676 679 682 685 689 694 698 701 704 707 710 714 718 720 722 725 729 732 736 739 743 746 749 752 755 757 759 761 763 765 767 768 770 772 774 776 778 781 783 785 787 789 791 793 795 797 800 802 805 807 808 810 812 813 814 815 816 817 819 820 821 823 825 827 830 831 833 835 836 838 838 839
657 658 657 657 657 657 657 658 659 662 665 667 669 672 675 678 681 685 689 692 695 698 701 705 709 711 712 715 720 724 727 731 734 738 741 744 747 750 752 754 755 757 759 761 764 766 768 770 772 775 777 779 781 782 784 786 789 791 793 795 798 801 803 805 807 808 810 811 812 812 813 815 816 817 819 822 824 827 828 830 832 833 835 836 837
654 654 653 653 653 652 653 655 657 659 660 663 665 667 670 673 675 679 683 686 690 692 695 700 702 703 706 711 716 720 723 725 729 732 736 739 742 745 747 749 750 752 755 758 760 763 764 766 769 771 773 775 776 777 778 781 784 786 789 791 793 796 799 801 803 805 807 808 808 809 810 811 812 814 816 818 820 823 825 827 828 830 832 833 834
651 651 650 651 651 650 651 653 653 653 655 657 659 661 664 667 670 674 676 680 684 686 690 694 695 696 702 707 711 715 718 721 724 728 731 734 737 740 742 744 745 748 751 753 756 758 761 763 765 767 769 770 770 772 774 777 780 782 785 787 789 792 795 797 799 801 803 804 804 805 806 808 809 811 812 814 816 819 821 823 825 826 828 830 831
649 649 649 650 649 649 649 648 648 649 651 652 654 657 661 663 665 667 669 674 679 681 684 687 689 693 699 703 707 710 713 716 719 723 726 729 733 735 737 739 741 743 746 749 751 754 757 760 761 763 764 765 765 767 770 773 775 778 781 783 786 788 790 793 795 797 799 800 801 802 803 804 805 807 809 811 813 816 818 820 822 823 825 827 828
647 648 647 647 646 644 644 643 643 644 645 647 650 654 656 657 659 662 666 671 673 675 678 681 685 690 694 698 702 705 708 712 714 718 722 725 728 731 732 734 736 739 742 744 747 750 752 755 757 758 760 760 761 762 765 768 771 773 777 780 783 784 786 788 791 793 795 796 797 798 799 800 802 803 806 808 810 812 815 817 819 820 821 823 825
645 645 644 643 642 641 639 639 639 640 641 644 648 650 651 653 657 661 665 668 670 672 674 677 682 686 690 694 698 701 704 708 711 715 719 721 723 725 727 730 733 735 738 740 743 746 748 751 752 754 755 756 756 757 760 763 766 769 772 776 779 781 782 784 786 788 790 792 793 794 795 796 798 799 802 804 806 808 811 813 815 816 818 820 822
644 643 641 640 640 639 637 635 636 637 639 642 643 644 647 651 655 658 661 663 666 669 671 675 679 683 688 692 694 697 701 705 708 712 715 717 719 721 723 726 729 731 733 735 738 741 744 746 748 749 751 751 751 752 755 758 761 765 769 772 775 777 779 780 782 784 785 787 788 790 791 793 794 795 798 800 803 805 807 810 811 813 815 817 820
641 641 639 638 637 635 634 633 633 635 636 637 638 640 644 648 651 654 657 660 664 667 670 674 677 680 684 688 691 695 699 702 705 708 710 712 714 716 719 722 724 726 728 730 733 736 739 741 743 744 746 746 746 748 750 753 756 760 765 768 771 773 775 776 778 779 781 782 784 785 787 789 790 792 794 796 799 802 804 807 809 810 813 815 817
638 637 636 635 634 633 632 631 631 631 632 632 634 638 641 644 647 650 653 656 660 663 666 669 673 677 681 684 688 692 694 697 700 702 704 706 708 710 713 716 719 721 723 725 728 731 733 735 737 739 740 741 742 744 745 748 752 756 760 763 765 768 771 772 773 774 776 777 779 780 783 785 786 788 790 793 796 799 801 804 806 808 810 812 814
636 635 633 632 632 630 629 629 628 628 629 630 633 636 638 641 643 645 648 652 655 657 660 664 668 672 676 679 682 685 687 690 692 693 696 698 701 704 707 710 712 715 717 720 723 726 728 729 731 732 733 736 738 739 740 743 747 751 755 758 760 764 766 768 769 770 772 773 774 775 778 780 782 783 786 789 793 796 798 800 803 805 807 809 811
634 633 632 630 629 627 627 626 626 626 627 628 631 633 635 637 639 642 646 648 649 650 653 658 662 666 669 673 675 678 682 684 686 688 691 693 696 699 702 705 708 710 711 713 717 720 721 722 724 726 727 730 732 732 734 738 742 746 750 753 756 759 761 762 764 766 767 768 769 771 773 776 778 780 783 786 789 792 794 797 799 801 803 806 808
633 633 631 629 627 625 625 625 626 626 626 628 630 631 633 635 637 640 642 642 643 646 650 655 658 662 665 668 671 674 678 680 682 683 686 689 691 694 697 701 703 706 708 710 711 712 712 713 717 720 722 723 725 727 729 732 736 740 744 748 751 752 754 757 759 761 763 764 765 767 769 771 774 777 779 783 785 787 790 793 795 797 799 802 805
634 633 631 629 627 626 626 627 627 627 627 627 629 630 632 634 636 638 639 639 642 646 651 655 659 661 664 667 669 672 674 676 678 681 684 686 688 691 694 696 699 702 705 707 708 708 708 708 710 713 716 717 719 721 724 727 731 734 738 742 745 746 748 752 755 756 758 760 761 763 765 767 770 773 776 779 781 783 786 789 791 793 796 799 802
636 634 631 630 628 627 628 628 628 627 627 627 629 630 631 634 636 637 639 641 644 647 650 653 656 659 661 664 666 669 671 674 677 680 682 684 686 689 692 694 696 699 701 703 705 706 707 706 706 707 709 711 712 714 717 720 723 727 731 735 738 739 743 748 751 752 754 756 757 759 761 763 766 770 773 776 778 780 783 785 787 789 793 796 800
637 635 633 631 630 630 631 630 629 629 629 628 630 631 632 635 637 638 641 642 643 645 648 650 652 654 656 659 661 663 667 670 673 675 678 681 684 686 689 691 693 696 698 700 701 703 705 705 704 703 703 703 704 706 709 712 715 719 723 727 730 733 737 742 746 748 750 752 754 756 758 760 764 768 771 773 776 778 780 782 784 786 790 794 798
640 638 636 635 632 631 632 633 633 633 632 631 631 632 634 636 638 640 641 642 644 645 647 649 650 652 654 656 659 661 664 667 669 672 675 678 680 682 685 687 689 691 694 695 696 698 700 701 702 702 702 701 700 700 702 704 708 712 716 719 723 727 732 736 740 744 746 748 750 752 755 758 762 766 769 772 775 777 778 779 781 784 788 791 795
644 642 640 638 636 634 635 635 636 636 634 633 633 633 635 637 639 640 641 642 643 645 646 648 649 651 653 656 658 661 663 665 667 669 672 674 676 678 680 682 684 686 689 690 691 692 692 692 693 695 697 698 698 697 697 699 702 707 711 713 718 722 726 731 735 739 741 743 745 748 751 756 760 764 767 772 775 776 776 777 779 782 785 788 792
647 645 643 641 639 637 636 636 637 637 636 636 636 636 637 639 640 640 640 641 642 643 645 647 648 650 652 655 657 659 661 663 665 667 669 671 673 675 676 677 679 681 682 683 684 685 685 684 684 686 689 692 695 695 695 696 700 704 706 709 714 718 722 727 731 734 736 738 742 745 749 753 757 760 765 770 774 775 776 777 778 780 783 785 788
649 647 646 643 641 640 638 637 637 638 637 638 638 638 639 640 640 640 641 641 641 642 644 646 648 650 652 654 656 657 659 661 663 664 666 668 669 671 672 674 675 676 677 677 678 679 680 679 679 681 684 686 688 689 690 692 695 698 700 704 709 713 718 722 726 729 731 734 738 742 746 750 754 758 762 768 772 775 775 776 777 779 781 783 785
650 649 647 644 642 641 640 639 639 640 640 640 640 640 641 640 640 641 641 641 641 642 644 646 647 649 651 652 654 656 657 659 660 661 663 664 665 667 668 668 668 669 670 671 672 673 674 674 674 677 679 680 680 680 679 680 683 687 692 697 702 706 712 717 720 722 725 730 734 739 743 748 751 754 759 765 770 773 774 774 775 777 779 781 783
652 650 647 644 642 641 641 641 642 642 643 643 643 644 643 642 642 642 641 642 642 643 644 646 647 649 650 652 653 654 656 657 658 659 661 662 663 664 665 665 665 666 667 667 668 668 667 668 670 672 673 673 672 670 668 668 671 674 679 685 691 696 702 709 713 715 720 725 730 734 739 744 747 750 755 762 768 771 772 773 773 774 776 778 780
653 651 649 646 644 643 643 643 644 644 644 645 645 646 646 645 645 644 644 644 643 644 645 647 648 650 651 652 653 654 655 656 657 658 659 660 661 663 664 664 664 665 665 666 666 666 665 666 666 665 664 663 661 660 662 665 669 672 674 677 682 687 694 702 708 711 715 720 725 730 735 739 741 745 751 758 764 768 769 770 770 771 772 774 777
654 653 651 649 647 646 645 645 645 646 646 646 647 647 648 647 647 647 646 646 645 646 647 648 650 651 652 652 653 654 654 655 656 657 658 659 660 660 661 662 662 662 663 663 663 663 663 663 662 661 659 657 657 659 663 668 672 676 678 680 681 682 686 693 701 707 712 715 719 725 731 734 736 741 747 754 760 764 766 767 767 767 769 771 775